Temperature
9 8 8 8 9 9 8 8 9 9 10 10 9 9 10 11 11 11 13 15 15 16 17 17 17 17 17 17 17 17 17 17 17 17 17 17 16 16 16 16 16 15 15 14
8 8 9 9 9 9 9 9 9 9 9 10 8 8 9 9 10 12 13 14 14 15 16 16 16 16 17 17 17 17 17 17 17 17 17 17 17 17 17 17 16 16 15 14
9 8 9 10 9 9 9 9 9 9 9 8 7 9 9 9 9 10 11 11 12 13 14 15 16 16 16 16 17 17 16 16 17 17 16 16 16 16 16 16 16 16 15 15
7 8 9 9 9 9 9 9 9 9 8 7 7 7 8 8 7 8 10 11 12 13 14 15 15 16 16 16 16 16 16 16 16 16 16 16 16 15 16 16 16 16 16 15
7 8 8 8 8 9 8 8 7 7 7 6 6 7 8 7 8 9 8 10 11 12 13 14 14 15 15 15 15 15 16 16 16 16 16 16 16 16 16 15 15 15 16 15
7 8 8 8 8 8 7 6 5 4 5 6 6 5 7 7 8 7 7 10 11 12 13 13 13 14 14 14 14 15 15 15 15 15 15 15 15 15 15 15 15 15 15 15
7 7 8 8 7 7 7 7 6 6 5 5 5 5 6 7 7 7 7 9 11 12 12 12 12 13 13 13 13 14 14 14 15 15 15 15 15 15 15 15 15 15 15 15
6 6 7 8 8 7 7 7 6 7 7 5 5 4 6 6 7 8 9 10 11 12 12 12 11 11 12 12 12 12 13 13 14 14 14 14 14 14 14 14 14 14 15 15
6 6 7 7 7 7 6 5 6 4 4 4 5 4 5 8 8 8 9 10 11 11 11 11 11 11 11 11 11 11 12 12 13 13 13 13 14 14 14 14 14 14 14 14
6 5 6 7 7 6 6 4 3 4 5 7 6 5 6 8 9 8 7 9 10 11 10 10 10 10 10 10 10 10 11 11 11 12 12 12 13 13 13 13 13 13 13 13
6 5 6 6 6 5 5 5 3 3 4 5 6 7 7 7 8 7 7 9 10 10 9 9 9 9 9 9 9 10 10 10 11 11 11 12 12 12 12 12 12 12 12 12
6 5 4 5 6 6 6 5 3 4 3 3 3 6 7 7 7 7 8 9 9 9 8 8 8 8 8 8 8 8 9 9 10 10 10 11 11 12 12 12 11 11 11 10
6 4 4 5 5 5 5 4 4 4 3 2 3 6 7 7 7 8 9 9 8 7 7 7 7 7 7 7 7 8 8 8 8 9 9 10 10 10 11 10 10 9 9 9
6 5 4 5 5 4 4 4 4 4 3 3 3 5 7 7 8 8 9 8 7 6 5 5 6 6 6 6 6 7 7 7 7 8 8 8 9 9 9 9 8 8 8 8
7 5 4 4 5 5 5 5 4 4 4 4 4 4 7 8 8 8 8 6 5 5 4 4 4 4 5 5 5 5 6 6 6 6 7 7 7 7 7 7 7 7 7 7
6 5 4 4 5 4 4 4 4 4 5 5 5 6 8 8 8 8 7 5 3 3 3 3 3 3 4 4 4 4 4 4 4 5 5 6 6 6 6 6 6 6 6 5
5 5 4 4 4 5 4 5 5 4 5 5 6 7 8 7 7 7 5 4 2 2 2 1 2 2 2 2 2 2 2 2 3 3 3 4 4 4 4 4 4 4 4 3
4 4 4 4 5 4 6 7 5 5 6 6 6 7 7 7 7 6 5 3 2 2 1 1 1 1 1 1 1 1 1 1 1 2 2 2 2 3 2 2 2 2 1 1
5 5 5 5 5 5 6 7 6 6 7 7 7 7 7 8 6 5 5 3 2 1 1 1 1 0 1 0 0 0 0 0 0 0 0 1 1 1 1 1 1 0 0 0
5 5 5 5 5 5 8 8 8 7 8 9 7 7 7 6 6 6 5 3 2 2 1 1 1 1 1 0 -0 -0 -0 -0 -0 -0 -0 -0 0 0 0 0 -0 -0 -0 0
5 5 6 5 5 5 6 7 8 8 9 10 9 8 7 6 6 6 5 4 3 2 2 2 1 1 1 1 0 0 0 -0 -0 -0 0 0 0 0 -0 -0 -0 0 0 0
6 6 6 6 6 5 7 7 7 9 9 9 8 8 7 7 7 6 5 4 3 3 3 3 2 2 2 1 1 1 1 1 1 1 1 0 0 0 0 0 -0 -0 -0 -0
5 5 5 5 6 7 8 8 9 9 9 9 8 8 7 6 6 6 5 4 4 4 4 3 3 3 2 2 1 2 1 1 1 1 1 1 0 -0 -0 -0 -0 -1 -1 -1
4 5 5 5 5 6 8 9 9 9 9 9 8 7 7 6 6 6 5 5 4 4 4 4 3 3 3 2 2 2 1 1 1 1 1 0 -0 -0 -1 -1 -1 -1 -2 -2
5 5 5 5 6 7 9 9 9 9 9 9 8 8 7 6 6 6 6 5 5 4 4 4 3 3 3 2 2 2 1 1 1 1 0 -0 -0 -1 -1 -1 -1 -2 -2 -2
4 5 5 5 6 6 7 8 8 8 8 8 8 8 7 6 6 6 5 5 5 4 4 4 4 3 3 2 2 1 1 0 0 0 -0 -0 -1 -1 -1 -2 -2 -2 -3 -3
Wind_Speed
7 6 8 10 8 5 8 7 4 4 3 4 7 9 14 11 9 11 12 12 13 14 12 9 9 9 9 8 10 11 11 12 10 9 12 13 14 13 12 12 14 17 17 18
6 6 6 9 9 7 7 5 2 3 4 3 7 11 12 11 9 10 11 11 12 12 12 9 8 8 8 8 9 9 11 11 11 11 11 9 10 10 12 10 10 15 16 18
6 4 8 10 8 7 4 4 3 2 4 4 7 9 8 7 4 6 7 8 9 11 13 11 9 8 7 8 9 8 10 10 11 12 8 4 4 3 6 8 10 11 16 17
5 3 6 9 7 6 4 3 4 3 2 4 5 6 9 7 9 7 8 8 9 10 9 9 9 8 7 7 6 7 7 8 9 9 9 11 12 12 12 11 12 11 14 15
3 3 6 6 5 6 5 5 5 4 3 2 1 2 10 5 6 7 9 10 10 9 7 7 7 7 6 5 4 4 5 7 7 8 11 13 14 12 9 8 10 11 11 12
4 3 3 4 4 6 8 6 6 5 3 3 3 5 8 4 4 8 10 11 11 10 9 8 8 8 7 7 6 4 3 5 6 7 9 12 15 13 10 11 12 11 8 9
4 4 3 4 7 4 4 5 3 4 3 5 2 3 9 6 6 7 10 11 10 9 9 10 11 11 10 9 8 7 6 6 6 6 8 11 13 13 14 14 14 12 9 10
5 2 1 2 4 6 4 6 5 4 3 4 2 6 8 7 8 7 6 6 8 9 9 10 10 9 9 10 9 8 8 8 7 6 7 8 9 9 9 11 11 13 13 14
6 3 3 4 4 7 6 4 3 6 2 3 5 7 9 5 4 5 7 8 10 10 11 11 11 10 10 10 10 9 8 9 8 8 8 8 8 9 10 11 10 10 8 8
5 5 3 2 6 6 5 7 5 5 4 3 6 5 5 6 5 8 10 10 11 12 12 12 11 11 10 10 10 9 8 8 8 8 7 7 7 8 8 8 10 10 8 9
4 6 3 3 3 5 5 4 5 4 3 4 4 6 6 6 4 7 10 11 12 12 12 12 12 12 12 11 10 9 9 8 8 7 7 7 7 6 6 7 8 8 8 10
4 5 3 1 2 4 4 6 6 5 4 3 2 8 6 6 7 7 10 12 10 10 10 11 12 12 12 11 9 9 8 8 8 7 7 7 5 5 6 6 7 8 9 9
5 6 4 2 3 0 2 5 5 5 5 5 4 8 4 3 8 10 11 10 9 10 11 11 11 11 11 10 9 8 8 8 8 7 6 5 3 4 5 6 8 9 10 11
5 4 5 6 5 6 5 6 7 6 5 5 8 10 13 14 15 14 12 9 9 10 10 10 11 10 10 9 9 9 9 8 8 6 4 3 1 4 6 7 9 10 11 12
5 4 3 3 2 4 6 7 10 9 9 8 8 8 15 16 16 14 9 7 9 10 11 11 11 11 10 10 10 10 10 9 8 6 4 3 4 6 8 10 11 12 12 13
4 4 2 2 1 3 6 9 11 10 9 11 11 14 17 13 9 8 6 7 8 10 11 11 11 11 10 10 10 10 10 9 8 7 7 7 9 10 11 12 13 14 14 14
4 5 2 2 4 4 7 10 14 8 8 9 12 12 12 11 10 7 5 5 7 8 9 9 9 9 9 9 9 9 9 9 9 10 10 11 12 13 13 14 14 14 14 15
7 5 3 1 3 4 6 3 8 8 8 10 10 12 11 10 7 2 1 3 5 6 6 7 7 8 7 8 8 7 8 9 10 10 11 11 13 14 14 14 14 14 12 13
6 6 3 1 3 7 8 3 7 7 6 8 13 15 12 6 4 2 1 1 2 3 4 4 6 6 7 7 7 7 8 9 10 10 10 10 11 13 13 13 13 11 12 12
4 5 4 3 2 5 4 1 4 5 3 4 7 10 7 2 3 3 3 2 2 2 3 4 5 6 7 7 7 8 8 9 9 9 9 10 10 12 12 12 11 10 10 11
5 4 5 5 5 7 7 3 4 3 3 4 4 7 5 5 5 3 5 3 2 2 4 5 6 7 7 7 7 9 9 9 8 9 10 11 11 11 11 10 10 10 10 10
8 7 6 6 6 8 4 6 6 4 4 4 4 5 5 5 4 5 5 4 3 3 4 5 5 6 7 7 7 8 9 8 8 10 11 11 10 9 9 10 9 9 9 10
8 8 6 8 9 5 2 6 6 4 5 5 4 4 4 5 6 6 5 5 3 4 4 4 5 6 7 7 7 8 6 7 8 10 10 10 10 9 8 8 8 7 6 6
4 5 5 5 8 7 8 8 7 6 7 6 5 5 5 6 6 7 7 6 5 4 4 4 6 6 6 6 7 6 6 7 8 10 8 8 8 8 7 6 6 6 6 5
5 6 5 6 6 7 5 3 4 5 6 6 4 4 6 7 7 8 7 7 6 5 4 4 5 6 6 6 6 6 6 7 9 8 7 7 7 7 7 7 6 6 4 5
4 5 5 5 4 3 7 7 6 7 7 7 5 3 4 7 8 8 7 7 6 6 5 6 6 6 6 6 6 5 6 6 8 7 6 5 5 5 6 6 6 9 7 9
Wind_Direction
144 157 183 182 166 152 150 149 181 242 311 312 275 278 282 279 265 260 262 264 268 271 267 249 240 244 246 237 225 225 224 222 210 202 206 211 215 214 210 209 205 197 190 183
137 192 173 144 133 119 121 129 179 290 339 319 300 283 270 265 247 243 254 265 274 281 289 277 255 245 236 234 225 221 223 223 213 208 206 208 211 214 212 207 200 195 186 183
136 139 140 144 153 152 144 159 186 251 338 19 333 302 292 292 300 300 291 289 291 283 286 291 288 272 258 246 235 225 220 223 220 213 202 186 182 186 198 203 203 193 187 186
82 105 136 145 159 150 184 184 151 126 47 322 16 315 293 300 324 326 328 326 315 307 298 298 301 296 278 261 249 235 229 226 227 218 205 200 206 212 211 210 207 194 188 187
104 131 137 150 152 138 142 97 93 94 113 328 344 222 284 341 336 336 331 333 333 333 334 331 326 317 314 308 290 264 247 238 233 221 214 212 218 219 209 199 196 193 190 188
74 65 114 130 103 121 122 85 68 56 70 279 236 192 281 298 284 307 316 327 337 347 1 2 359 360 353 349 341 326 291 262 248 232 222 219 221 216 202 197 199 195 188 188
67 39 46 99 91 70 107 104 36 350 2 251 192 217 256 270 267 276 296 312 328 349 3 2 357 350 342 336 332 329 322 302 283 257 237 227 227 219 212 207 205 196 189 193
127 138 15 74 134 152 157 146 169 208 244 290 229 241 259 273 282 282 295 312 340 354 355 350 340 331 322 318 317 319 316 305 298 281 261 244 232 221 217 210 205 202 203 201
137 117 40 58 74 121 121 118 128 119 113 291 277 281 301 306 2 4 355 352 347 339 335 329 323 317 309 303 298 297 297 297 296 289 276 260 236 220 215 208 204 203 202 186
118 107 69 81 73 43 123 135 107 129 163 271 297 280 265 298 333 344 340 331 323 321 321 319 317 312 304 295 289 287 279 276 281 284 276 267 246 228 216 202 202 196 182 170
94 109 91 81 152 158 121 109 106 106 144 166 290 282 225 229 278 306 305 303 303 305 310 313 314 312 307 301 294 289 288 286 287 286 280 269 254 229 205 199 194 179 165 160
107 107 119 274 324 183 153 159 148 151 191 174 206 271 268 241 268 282 290 295 300 310 314 313 313 315 315 311 308 303 300 297 292 291 285 271 250 213 195 186 168 154 151 151
127 110 98 28 347 22 185 174 159 129 125 161 197 265 292 305 303 296 297 307 321 325 323 322 322 321 320 321 321 318 314 307 301 298 290 277 237 193 176 157 145 142 140 139
116 115 158 189 218 179 195 192 172 145 168 202 231 264 290 300 303 306 313 322 327 323 325 327 326 327 333 338 337 333 327 323 319 316 310 292 201 153 138 130 129 130 131 131
111 130 174 230 245 183 204 193 188 196 197 207 238 248 276 287 295 302 311 328 331 330 335 338 338 341 347 349 348 347 343 343 341 347 0 27 82 102 107 109 111 113 114 115
106 124 131 307 317 234 237 223 206 212 220 237 261 278 275 283 292 297 314 329 330 332 337 340 344 349 354 353 353 357 360 360 8 28 39 57 77 88 94 99 101 102 104 106
119 128 131 289 299 308 260 225 203 200 206 204 236 250 271 288 295 303 312 327 326 330 336 340 343 350 356 358 2 8 11 19 38 48 55 65 77 82 86 94 97 99 101 103
127 122 129 298 349 265 246 207 182 198 228 214 236 257 271 277 295 273 257 321 325 333 337 342 348 358 5 8 15 24 31 39 50 59 65 72 82 86 89 91 94 96 100 102
138 136 145 217 297 285 296 226 167 179 257 223 231 255 270 290 311 265 150 50 343 342 350 352 359 7 15 20 26 37 43 47 53 58 66 74 85 91 93 95 95 97 100 99
118 119 145 189 259 262 256 296 169 141 274 245 217 251 270 294 302 275 143 109 57 34 23 17 15 23 27 26 33 46 47 50 52 56 64 70 78 84 88 91 94 94 96 97
162 173 195 206 239 266 254 248 134 160 239 282 245 256 253 218 219 147 135 124 96 73 60 47 39 37 33 33 45 52 48 47 52 62 68 71 76 82 86 88 88 92 93 93
183 188 192 186 213 253 241 142 175 229 267 277 270 261 247 220 150 140 146 138 119 96 78 66 58 49 42 45 59 62 53 52 63 70 71 70 71 75 81 86 85 88 96 95
195 194 187 199 218 238 223 217 247 251 262 264 252 260 236 202 184 166 159 152 135 114 98 83 78 67 54 53 65 74 65 69 76 77 75 74 74 72 76 87 90 82 79 89
236 189 190 242 259 258 262 264 270 251 239 250 249 249 206 201 184 167 161 159 149 132 113 103 95 86 72 64 69 75 78 82 86 84 78 76 77 72 62 67 74 82 84 88
220 179 200 241 275 303 297 279 290 279 255 259 258 227 207 191 181 171 165 163 157 142 128 118 113 107 98 87 79 78 85 95 93 86 82 78 77 78 73 72 78 87 88 110
205 182 189 229 245 254 279 289 302 283 268 258 241 223 196 188 179 164 159 156 151 146 139 131 124 120 113 103 95 90 96 104 107 99 88 84 84 81 80 78 72 79 87 86
Height
1468 1474 1477 1479 1482 1486 1490 1494 1495 1494 1491 1491 1490 1488 1482 1477 1478 1477 1475 1474 1473 1473 1474 1477 1479 1480 1481 1482 1483 1484 1486 1489 1491 1493 1494 1496 1498 1500 1502 1505 1508 1510 1512 1514
1470 1473 1473 1477 1481 1485 1489 1493 1495 1494 1492 1492 1491 1487 1478 1471 1471 1470 1469 1468 1468 1468 1467 1469 1471 1472 1473 1475 1476 1477 1479 1481 1483 1485 1487 1489 1491 1493 1496 1498 1501 1504 1506 1508
1466 1471 1472 1476 1481 1485 1488 1492 1494 1495 1494 1494 1495 1484 1476 1468 1467 1466 1466 1466 1465 1464 1463 1462 1463 1464 1465 1467 1469 1471 1473 1475 1477 1479 1481 1482 1484 1485 1488 1490 1493 1496 1499 1502
1470 1471 1473 1476 1481 1484 1489 1490 1492 1494 1498 1502 1500 1498 1479 1472 1469 1466 1465 1464 1463 1462 1460 1460 1460 1460 1460 1461 1462 1464 1467 1469 1471 1472 1473 1474 1475 1476 1479 1482 1486 1489 1492 1495
1472 1473 1475 1478 1481 1484 1490 1491 1495 1498 1501 1504 1505 1503 1483 1477 1471 1469 1466 1464 1462 1461 1460 1459 1459 1458 1458 1458 1459 1460 1462 1463 1465 1466 1466 1467 1468 1470 1472 1475 1478 1481 1484 1487
1473 1474 1476 1479 1482 1484 1490 1495 1502 1507 1507 1507 1505 1506 1490 1480 1475 1472 1467 1463 1462 1460 1459 1458 1458 1458 1457 1457 1458 1458 1458 1459 1459 1460 1460 1460 1461 1463 1464 1466 1469 1472 1475 1479
1478 1478 1479 1480 1485 1489 1490 1498 1507 1508 1515 1510 1506 1506 1491 1476 1473 1472 1468 1464 1462 1460 1459 1458 1457 1456 1456 1456 1456 1455 1455 1455 1454 1454 1454 1454 1454 1455 1456 1458 1461 1463 1466 1469
1481 1485 1481 1481 1483 1488 1491 1494 1503 1502 1504 1508 1507 1504 1485 1474 1470 1469 1467 1465 1462 1461 1459 1458 1457 1455 1454 1453 1452 1451 1450 1450 1450 1449 1449 1449 1449 1449 1450 1451 1453 1455 1458 1461
1480 1486 1484 1483 1484 1487 1494 1500 1500 1511 1516 1515 1504 1498 1484 1470 1469 1468 1466 1464 1462 1460 1459 1457 1455 1452 1450 1449 1447 1446 1445 1444 1444 1443 1443 1443 1443 1443 1443 1444 1446 1448 1451 1454
1476 1487 1486 1486 1486 1490 1492 1498 1507 1512 1509 1500 1497 1496 1487 1474 1470 1469 1466 1464 1462 1459 1457 1454 1451 1448 1445 1443 1441 1440 1439 1438 1438 1437 1437 1436 1437 1437 1437 1438 1439 1441 1444 1446
1476 1486 1489 1488 1490 1493 1496 1500 1505 1512 1509 1507 1500 1487 1475 1474 1471 1470 1467 1464 1462 1459 1455 1451 1447 1443 1440 1437 1434 1433 1432 1431 1431 1431 1430 1430 1430 1431 1431 1432 1433 1435 1437 1440
1476 1485 1492 1492 1491 1490 1491 1496 1503 1508 1512 1513 1513 1494 1470 1470 1469 1468 1465 1462 1459 1456 1452 1448 1443 1439 1435 1432 1429 1427 1425 1424 1424 1423 1423 1423 1423 1424 1425 1426 1427 1429 1431 1434
1476 1486 1497 1496 1498 1494 1492 1495 1497 1502 1510 1517 1514 1491 1469 1468 1466 1464 1462 1458 1455 1452 1448 1444 1440 1436 1432 1428 1425 1423 1421 1419 1418 1417 1416 1416 1416 1417 1418 1420 1421 1424 1426 1430
1474 1483 1491 1493 1491 1491 1492 1493 1495 1499 1508 1509 1501 1487 1470 1466 1464 1460 1458 1456 1453 1449 1445 1441 1437 1433 1429 1426 1422 1419 1417 1415 1413 1412 1411 1410 1410 1411 1413 1415 1417 1420 1423 1426
1474 1483 1486 1487 1485 1486 1487 1488 1491 1493 1494 1496 1489 1484 1470 1464 1461 1458 1456 1453 1450 1447 1443 1439 1435 1431 1427 1423 1420 1417 1414 1411 1409 1407 1406 1405 1406 1407 1409 1411 1414 1417 1420 1423
1474 1482 1486 1487 1485 1486 1486 1484 1484 1486 1486 1485 1482 1476 1462 1459 1458 1456 1454 1451 1448 1445 1442 1438 1434 1430 1426 1423 1419 1415 1412 1409 1406 1404 1403 1403 1403 1405 1407 1409 1412 1415 1418 1421
1475 1481 1486 1488 1485 1482 1482 1474 1476 1478 1476 1476 1476 1468 1459 1458 1456 1454 1452 1449 1447 1444 1441 1437 1433 1430 1426 1423 1420 1416 1412 1409 1406 1404 1403 1402 1403 1404 1407 1409 1411 1414 1417 1421
1476 1482 1486 1486 1483 1485 1470 1462 1465 1468 1467 1467 1465 1460 1457 1456 1454 1451 1450 1448 1446 1443 1440 1437 1433 1430 1427 1424 1421 1417 1414 1411 1408 1406 1405 1405 1406 1407 1409 1411 1413 1417 1420 1424
1472 1478 1482 1482 1482 1477 1465 1459 1462 1465 1463 1459 1460 1457 1454 1453 1452 1449 1449 1447 1445 1443 1440 1437 1434 1431 1428 1425 1423 1420 1416 1414 1412 1410 1410 1410 1410 1411 1413 1415 1418 1421 1424 1428
1472 1474 1480 1479 1479 1475 1462 1457 1456 1460 1460 1454 1454 1453 1451 1452 1453 1450 1448 1446 1444 1442 1439 1437 1434 1432 1430 1428 1425 1423 1421 1419 1417 1416 1416 1416 1416 1417 1419 1421 1424 1427 1431 1434
1472 1473 1474 1475 1476 1471 1458 1455 1457 1462 1458 1452 1450 1449 1448 1449 1449 1448 1446 1445 1444 1442 1440 1438 1436 1434 1432 1431 1430 1428 1426 1425 1424 1423 1423 1423 1424 1425 1427 1429 1432 1434 1436 1438
1464 1466 1467 1469 1472 1469 1453 1454 1456 1454 1450 1449 1447 1446 1445 1444 1444 1444 1444 1444 1443 1442 1441 1439 1438 1437 1436 1435 1434 1433 1432 1431 1431 1431 1431 1431 1432 1433 1435 1436 1438 1439 1441 1442
1461 1461 1461 1462 1460 1452 1450 1450 1449 1449 1447 1446 1445 1443 1442 1441 1442 1442 1443 1443 1443 1443 1442 1441 1441 1440 1440 1439 1439 1438 1438 1438 1438 1438 1438 1439 1439 1440 1441 1442 1443 1444 1445 1445
1455 1454 1456 1456 1451 1448 1447 1447 1446 1445 1444 1443 1441 1440 1439 1439 1439 1440 1441 1442 1442 1442 1442 1442 1442 1443 1443 1443 1443 1443 1443 1443 1444 1444 1444 1444 1444 1445 1445 1446 1446 1446 1447 1447
1450 1451 1451 1450 1447 1445 1443 1444 1444 1442 1441 1440 1438 1437 1436 1436 1436 1437 1438 1440 1441 1442 1442 1443 1444 1444 1445 1445 1446 1446 1447 1448 1448 1448 1448 1448 1448 1448 1448 1448 1449 1449 1449 1449
1446 1447 1448 1448 1445 1445 1443 1441 1441 1439 1437 1436 1435 1433 1433 1433 1433 1435 1436 1438 1439 1441 1442 1443 1444 1445 1446 1447 1448 1449 1450 1451 1451 1451 1451 1451 1451 1451 1451 1451 1450 1450 1450 1449